Jefferson, NC

8:47 AM EST on November 15, 2019 (GMT -0500)
Ashe County

Weather History for KGEV - September, 2019

Change the Weather History Date:

Wednesday, September 11, 2019

  Actual Average Record
Temperature  
Mean Temperature 72 °F -  
Max Temperature 84 °F 75 °F 86 °F (1983)
Min Temperature 61 °F 52 °F 36 °F (1969)
Cooling Degree Days 8    
Growing Degree Days 22 (Base 50)    
Moisture  
Dew Point 65 °F    
Average Humidity 77    
Maximum Humidity 100    
Minimum Humidity 42    
Precipitation  
Precipitation 0.00 in - - ()
Sea Level Pressure  
Sea Level Pressure 30.36 in    
Wind  
Wind Speed 1 mph ()    
Max Wind Speed 9 mph    
Max Gust Speed -    
Visibility 7.4 miles    
Events Fog    
Averages and records for this station are not official NWS values.
T = Trace of Precipitation, MM = Missing Value Source: Averaged Metar Reports

Daily Weather History Graph

Daily Weather History Graph

Search for Another Location

Airport or City:

Astronomy

Sep. 11, 2019 Rise Set
Actual Time 7:04 AM EDT 7:39 PM EDT
Civil Twilight 6:38 AM EDT 8:05 PM EDT
Nautical Twilight 6:08 AM EDT 8:35 PM EDT
Astronomical Twilight 5:36 AM EDT 9:06 PM EDT
Moon 6:45 PM EDT (9/11) 4:32 AM EDT (9/11)
Length of Visible Light 13h 26m
Length of Day
12h 34m
Waxing Gibbous, 94% of the Moon is Illuminated
Sep 11
Waxing Gibbous
Sep 14
Full
Sep 21
Last Quarter
Sep 28
New
Oct 5
First Quarter

Hourly Weather History & Observations

Time (EDT) Temp. Heat Index Dew Point Humidity Pressure Visibility Wind Dir Wind Speed Gust Speed Precip Events Conditions
12:15 AM 66.6 °F - 66.4 °F 99% 30.42 in 3.0 mi Calm Calm - N/A   Scattered Clouds
12:35 AM 67.6 °F - 67.1 °F 98% 30.42 in 5.0 mi Calm Calm - N/A   Mostly Cloudy
12:55 AM 70.2 °F - 68.0 °F 93% 30.42 in 7.0 mi Calm Calm - N/A   Overcast
1:15 AM 69.3 °F - 67.5 °F 94% 30.42 in 7.0 mi Calm Calm - N/A   Overcast
1:35 AM 67.3 °F - 67.1 °F 99% 30.41 in 4.0 mi Calm Calm - N/A   Mostly Cloudy
1:55 AM 68.5 °F - 67.5 °F 96% 30.41 in 5.0 mi WSW 3.5 mph - N/A   Scattered Clouds
2:15 AM 67.1 °F - 66.6 °F 98% 30.41 in 2.0 mi Calm Calm - N/A   Scattered Clouds
2:35 AM 70.0 °F - 68.0 °F 93% 30.40 in 7.0 mi Calm Calm - N/A   Scattered Clouds
2:55 AM 67.6 °F - 67.1 °F 98% 30.40 in 3.0 mi Calm Calm - N/A   Mostly Cloudy
3:15 AM 68.0 °F - 67.5 °F 98% 30.40 in 5.0 mi Calm Calm - N/A   Mostly Cloudy
3:55 AM 68.2 °F - 66.9 °F 96% 30.38 in 4.0 mi Calm Calm - N/A   Scattered Clouds
4:15 AM 66.4 °F - 66.4 °F 100% 30.38 in 1.5 mi Calm Calm - N/A   Scattered Clouds
4:35 AM 65.8 °F - 65.7 °F 99% 30.38 in 1.8 mi WSW 3.5 mph - N/A   Scattered Clouds
4:55 AM 66.6 °F - 66.6 °F 100% 30.38 in 1.2 mi Calm Calm - N/A   Scattered Clouds
5:35 AM 64.8 °F - 64.8 °F 100% 30.38 in 0.2 mi Calm Calm - N/A Fog Fog
5:55 AM 65.3 °F - 65.3 °F 100% 30.38 in 2.5 mi Calm Calm - N/A   Scattered Clouds
6:15 AM 64.4 °F - 64.4 °F 100% 30.38 in 0.5 mi Calm Calm - N/A Fog Fog
6:35 AM 61.7 °F - 61.7 °F 100% 30.39 in 0.2 mi Calm Calm - N/A Fog Fog
6:55 AM 61.9 °F - 61.9 °F 100% 30.40 in 0.2 mi Calm Calm - N/A Fog Fog
7:15 AM 62.1 °F - 62.1 °F 100% 30.40 in 0.2 mi Calm Calm - N/A Fog Fog
7:35 AM 61.7 °F - 61.7 °F 100% 30.41 in 0.2 mi Calm Calm - N/A Fog Fog
8:35 AM 63.3 °F - 63.3 °F 100% 30.42 in 0.2 mi Calm Calm - N/A Fog Fog
8:55 AM 66.0 °F - 66.0 °F 100% 30.42 in 5.0 mi Calm Calm - N/A   Scattered Clouds
9:55 AM 69.3 °F - 68.2 °F 96% 30.43 in 10.0 mi Calm Calm - N/A   Clear
10:15 AM 71.1 °F - 68.7 °F 92% 30.42 in 10.0 mi Calm Calm - N/A   Clear
10:35 AM 72.7 °F - 69.4 °F 90% 30.42 in 10.0 mi Calm Calm - N/A   Clear
11:15 AM 78.1 °F - 66.0 °F 66% 30.42 in 10.0 mi WSW 5.8 mph - N/A   Clear
11:35 AM 78.6 °F - 66.0 °F 65% 30.41 in 10.0 mi WSW 6.9 mph - N/A   Clear
11:55 AM 79.3 °F - 66.2 °F 64% 30.41 in 10.0 mi WSW 6.9 mph - N/A   Clear
12:15 PM 80.2 °F 82.3 °F 66.0 °F 62% 30.40 in 10.0 mi WSW 9.2 mph - N/A   Scattered Clouds
12:35 PM 79.2 °F - 64.2 °F 60% 30.40 in 10.0 mi WSW 4.6 mph - N/A   Clear
12:55 PM 79.7 °F - 64.9 °F 61% 30.39 in 10.0 mi WSW 5.8 mph - N/A   Scattered Clouds
1:15 PM 81.1 °F 82.7 °F 64.2 °F 56% 30.38 in 10.0 mi WSW 9.2 mph - N/A   Clear
1:35 PM 79.0 °F - 64.2 °F 60% 30.38 in 10.0 mi WSW 5.8 mph - N/A   Scattered Clouds
1:55 PM 81.1 °F 82.7 °F 64.2 °F 56% 30.37 in 10.0 mi WSW 4.6 mph - N/A   Mostly Cloudy
2:55 PM 82.2 °F 83.2 °F 62.6 °F 51% 30.35 in 10.0 mi WSW 4.6 mph - N/A   Scattered Clouds
3:15 PM 83.7 °F 83.8 °F 60.1 °F 45% 30.34 in 10.0 mi WSW 3.5 mph - N/A   Scattered Clouds
3:35 PM 83.5 °F 83.7 °F 60.6 °F 46% 30.33 in 10.0 mi Calm Calm - N/A   Mostly Cloudy
3:55 PM 84.2 °F 83.8 °F 58.6 °F 42% 30.33 in 10.0 mi WSW 4.6 mph - N/A   Mostly Cloudy
4:15 PM 80.6 °F 82.2 °F 64.0 °F 57% 30.32 in 10.0 mi WSW 4.6 mph - N/A   Overcast
4:35 PM 80.4 °F 82.2 °F 65.1 °F 59% 30.31 in 10.0 mi WSW 3.5 mph - N/A   Overcast
4:55 PM 81.3 °F 83.2 °F 65.3 °F 58% 30.31 in 10.0 mi Calm Calm - N/A   Scattered Clouds
5:15 PM 80.8 °F 82.4 °F 64.2 °F 57% 30.30 in 10.0 mi Calm Calm - N/A   Scattered Clouds
5:35 PM 81.0 °F 82.6 °F 64.4 °F 57% 30.30 in 10.0 mi WSW 3.5 mph - N/A   Clear
5:55 PM 80.8 °F 82.6 °F 65.1 °F 59% 30.30 in 10.0 mi Calm Calm - N/A   Scattered Clouds
6:15 PM 79.5 °F - 65.3 °F 62% 30.30 in 10.0 mi Calm Calm - N/A   Scattered Clouds
6:35 PM 79.7 °F - 63.9 °F 58% 30.30 in 10.0 mi Calm Calm - N/A   Clear
6:55 PM 78.6 °F - 64.0 °F 61% 30.30 in 10.0 mi Calm Calm - N/A   Clear
7:15 PM 78.3 °F - 62.8 °F 59% 30.29 in 10.0 mi Calm Calm - N/A   Clear
7:35 PM 78.1 °F - 63.0 °F 60% 30.29 in 10.0 mi WSW 3.5 mph - N/A   Clear
7:55 PM 77.0 °F - 63.5 °F 63% 30.30 in 10.0 mi Calm Calm - N/A   Clear
8:15 PM 76.1 °F - 62.8 °F 63% 30.30 in 10.0 mi WSW 4.6 mph - N/A   Clear
8:35 PM 75.2 °F - 63.0 °F 66% 30.30 in 10.0 mi Calm Calm - N/A   Clear
8:55 PM 75.7 °F - 62.8 °F 64% 30.31 in 10.0 mi WSW 3.5 mph - N/A   Clear
9:15 PM 74.7 °F - 63.0 °F 67% 30.31 in 10.0 mi WSW 5.8 mph - N/A   Clear
9:35 PM 72.7 °F - 63.7 °F 73% 30.31 in 10.0 mi Calm Calm - N/A   Scattered Clouds
9:55 PM 73.6 °F - 63.5 °F 71% 30.32 in 10.0 mi Calm Calm - N/A   Scattered Clouds
10:15 PM 70.9 °F - 63.9 °F 78% 30.32 in 10.0 mi Calm Calm - N/A   Clear
10:35 PM 70.2 °F - 64.4 °F 82% 30.33 in 10.0 mi Calm Calm - N/A   Clear
10:55 PM 71.8 °F - 63.1 °F 74% 30.32 in 10.0 mi Calm Calm - N/A   Clear
11:15 PM 69.8 °F - 63.5 °F 80% 30.32 in 10.0 mi WSW 3.5 mph - N/A   Clear
11:35 PM 67.5 °F - 63.7 °F 88% 30.31 in 10.0 mi Calm Calm - N/A   Clear
11:55 PM 70.5 °F - 63.3 °F 78% 30.31 in 10.0 mi WSW 3.5 mph - N/A   Clear